Sacramento, CA

8:34 PM PDT on May 28, 2017 (GMT -0700)
Sacramento Executive

Weather History for KSAC - March, 2014

Change the Weather History Date:

Monday, March 31, 2014

  Actual Average Record
Temperature  
Mean Temperature 52 °F -  
Max Temperature 58 °F 67 °F 86 °F (1966)
Min Temperature 45 °F 45 °F 36 °F (1999)
Degree Days  
Heating Degree Days 13    
Cooling Degree Days 0    
Moisture  
Dew Point 44 °F    
Average Humidity 72    
Maximum Humidity 93    
Minimum Humidity 51    
Precipitation  
Precipitation 0.17 in 0.06 in 1.85 in (1982)
Month to date precipitation 1.74 2.75  
Year to date precipitation 6.03 9.86  
Since 1 July precipitation 7.93  
Sea Level Pressure  
Sea Level Pressure 29.92 in    
Wind  
Wind Speed 5 mph (South)    
Max Wind Speed 21 mph    
Max Gust Speed 30 mph    
Visibility 9 miles    
Events Rain    
T = Trace of Precipitation, MM = Missing Value Source: NWS Daily Summary

Daily Weather History Graph

Daily Weather History Graph

Search for Another Location

Airport or City:

Trip Planner

Search our weather history database for the weather conditions in past years. The results will help you decide how hot, cold, wet, or windy it might be!

Date:

Astronomy

Mar. 31, 2014 Rise Set
Actual Time 6:52 AM PDT 7:28 PM PDT
Civil Twilight 6:25 AM PDT 7:55 PM PDT
Nautical Twilight 5:54 AM PDT 8:26 PM PDT
Astronomical Twilight 5:21 AM PDT 8:59 PM PDT
Moon 7:19 AM PDT (3/31) 8:51 PM PDT (3/31)
Length of Visible Light 13h 29m
Length of Day
12h 36m
New Moon, 1% of the Moon is Illuminated
Mar 31
New Moon
Apr 7
First Quarter
Apr 15
Full
Apr 22
Last Quarter
Apr 28
New

Hourly Weather History & Observations

Time (PDT) Temp. Windchill Dew Point Humidity Pressure Visibility Wind Dir Wind Speed Gust Speed Precip Events Conditions
12:53 AM 46.9 °F - 43.0 °F 86% 30.07 in 10.0 mi SE 3.5 mph - N/A   Mostly Cloudy
1:53 AM 48.0 °F - 44.1 °F 86% 30.06 in 10.0 mi SSE 3.5 mph - N/A   Overcast
2:53 AM 48.0 °F - 44.1 °F 86% 30.06 in 10.0 mi South 3.5 mph - N/A   Overcast
3:53 AM 48.0 °F - 44.1 °F 86% 30.04 in 10.0 mi Calm Calm - N/A   Overcast
4:53 AM 48.0 °F - 44.1 °F 86% 30.02 in 10.0 mi Calm Calm - N/A   Overcast
5:53 AM 46.0 °F 44.8 °F 43.0 °F 89% 30.00 in 10.0 mi SE 3.5 mph - N/A   Scattered Clouds
6:53 AM 46.0 °F 44.8 °F 43.0 °F 89% 29.99 in 10.0 mi SE 3.5 mph - N/A   Scattered Clouds
7:53 AM 48.0 °F - 44.1 °F 86% 29.98 in 10.0 mi Calm Calm - N/A   Mostly Cloudy
8:53 AM 51.1 °F - 44.1 °F 77% 29.96 in 10.0 mi SSE 4.6 mph - N/A   Mostly Cloudy
9:53 AM 53.1 °F - 44.1 °F 71% 29.95 in 10.0 mi South 8.1 mph - N/A   Partly Cloudy
10:53 AM 54.0 °F - 43.0 °F 66% 29.93 in 10.0 mi SSE 8.1 mph 16.1 mph N/A   Mostly Cloudy
11:53 AM 57.0 °F - 42.1 °F 57% 29.91 in 10.0 mi South 8.1 mph 23.0 mph N/A   Partly Cloudy
12:53 PM 57.0 °F - 39.9 °F 53% 29.88 in 10.0 mi South 11.5 mph 19.6 mph N/A   Mostly Cloudy
1:53 PM 57.0 °F - 43.0 °F 59% 29.86 in 10.0 mi SSE 11.5 mph 18.4 mph N/A   Overcast
2:53 PM 50.0 °F - 46.0 °F 86% 29.85 in 10.0 mi WSW 15.0 mph 25.3 mph 0.00 in Rain Light Rain
3:20 PM 50.0 °F - 46.0 °F 86% 29.85 in 3.0 mi WSW 15.0 mph 25.3 mph 0.00 in Rain Rain
3:53 PM 48.0 °F - 45.0 °F 89% 29.84 in 10.0 mi WSW 9.2 mph - 0.08 in Rain Light Rain
4:31 PM 48.0 °F - 45.0 °F 89% 29.84 in 4.0 mi WSW 9.2 mph - 0.08 in Rain Light Rain
4:53 PM 46.9 °F - 45.0 °F 93% 29.83 in 5.0 mi West 9.2 mph - 0.08 in Rain Light Rain
5:53 PM 46.9 °F - 45.0 °F 93% 29.83 in 10.0 mi SSW 5.8 mph - 0.02 in Rain Light Rain
6:53 PM 48.0 °F - 46.0 °F 93% 29.84 in 10.0 mi SSW 6.9 mph - 0.00 in   Overcast
7:53 PM 46.9 °F - 44.1 °F 90% 29.84 in 10.0 mi SW 6.9 mph - N/A   Clear
8:53 PM 46.0 °F 44.8 °F 43.0 °F 89% 29.87 in 10.0 mi ESE 3.5 mph - N/A   Clear
9:53 PM 44.1 °F 40.8 °F 43.0 °F 96% 29.89 in 10.0 mi SSE 5.8 mph - N/A   Clear
10:53 PM 44.1 °F 41.5 °F 42.1 °F 93% 29.92 in 10.0 mi SSE 4.6 mph - N/A   Clear
11:53 PM 44.1 °F 40.8 °F 43.0 °F 96% 29.92 in 10.0 mi SE 5.8 mph - N/A   Scattered Clouds